User: anonymous   Login
Location: Unspecified
(0.0000°N, 0.0000°E)
Time: 20:08:29
(UTC+00:00)
Language:

STARLINK-34363 - Orbit

View from above orbital plane
View from above orbital plane
View from above satellite
View from above satellite

Ground track
Ground track

The orbit is defined by the following mean orbital elements,

1 64497U          26145.58335647 +.00000000 +00000-0 -53556-3 0 00000
2 64497  53.1586 117.1270 0001780  80.9635  18.8527 15.34399339    06
Epoch (UTC): 25 May 2026 14:00:01
Eccentricity: 0.0001780
inclination: 53.1586°
perigee height: 461 km
apogee height: 464 km
right ascension of ascending node: 117.1270°
argument of perigee: 80.9635°
revolutions per day: 15.34399339
mean anomaly at epoch: 18.8527°

The dashed part of the orbit path shows where the satellite is in the earth's shadow,  

DLR